SES-14 (43175 NORAD) Tracking and Keplerian Element Data

This shows tracking and keplerian element data for the satellite.

Feedback or suggestion? Click here.




ElementValue
Catalog43175
NameSES-14
Epoch Orbit831
Epoch Day92.00257549
Epoch Year2020
RAAN248.545
Inclination0.0149
Eccentricity0.0001084
Argument of Perigee98.7558
Mean Anonmoly155.9383
Mean Motion1.00270513
Decay Rate-2.82E-06
L11 43175U 18012B 20092.00257549 -.00000282 00000-0 00000+0 0 9999
L22 43175 0.0149 248.5450 0001084 98.7558 155.9383 1.00270513 8314

Live tracking and technical data element details for SES-14 (NORAD 43175). SES-14 can be tracked NOW for your location showing map with azimuth and elevation plus other details from your city location.

Track the satellite on the map from your city or location and see movement details for azimuth, elevation, latitude, longitude, range, height, and movement on the map or in text.







IsCatalogInMostPopularTable: catalog: 43175, numindb: 372
Update: records affected: 1



GetName: 43175 SES-14

Hit Count: updated at: Fri, 03 Apr 2020 08:23:03 GMT